User: anonymous   Login
Location: Hackbridge
(51.3833°N, 0.1500°W)
Time: 21:14:47
(UTC+00:00)
Language:

STARLINK-58 - Orbit

View from above orbital plane
View from above orbital plane
View from above satellite
View from above satellite

Ground track
Ground track

The orbit data is extracted from the following two-line orbital elements,

1 44270U 19029AM  19342.25001157 -.00024050  00000-0 -13662-2 0  9991
2 44270  52.9994   1.6766 0001389 104.8898 218.2554 15.12155648 30033
Epoch (UTC): 08 December 2019 06:00:01
Eccentricity: 0.0001389
inclination: 52.9994°
perigee height: 528 km
apogee height: 530 km
right ascension of ascending node: 1.6766°
argument of perigee: 104.8898°
revolutions per day: 15.12155648
mean anomaly at epoch: 218.2554°
orbit number at epoch: 3003

The dashed part of the orbit path shows where the satellite is in the earth's shadow,  

DLR